Weather History for Storm Lake, IA

Change the Weather History Date:

Monday, February 6, 2012

  Actual Average Record
Temperature  
Mean Temperature 26 °F -  
Max Temperature 37 °F 29 °F 46 °F (2009)
Min Temperature 15 °F 14 °F -13 °F (2014)
Degree Days  
Heating Degree Days 39    
Moisture  
Dew Point 24 °F    
Average Humidity 96    
Maximum Humidity 100    
Minimum Humidity 80    
Precipitation  
Precipitation 0.00 in - - ()
Sea Level Pressure  
Sea Level Pressure 30.15 in    
Wind  
Wind Speed 7 mph (WSW)    
Max Wind Speed 10 mph    
Max Gust Speed -    
Visibility 3 miles    
Events      
Averages and records for this station are not official NWS values.
T = Trace of Precipitation, MM = Missing Value Source: NWS Daily Summary

Daily Weather History Graph

Daily Weather History Graph

Search for Another Location

Airport:

Trip Planner

Search our weather history database for the weather conditions in past years. The results will help you decide how hot, cold, wet, or windy it might be!

Date:

Astronomy

Feb. 06, 2012 Rise Set
Actual Time 7:30 AM CST 5:40 PM CST
Civil Twilight 7:00 AM CST 6:10 PM CST
Nautical Twilight 6:27 AM CST 6:43 PM CST
Astronomical Twilight 5:54 AM CST 7:16 PM CST
Moon 4:45 PM CST (2/6) 6:23 AM CST (2/6)
Length of Visible Light 11h 09m
Length of Day
10h 10m
Waxing Gibbous, 98% of the Moon is Illuminated
Feb 6
Waxing Gibbous
Feb 7
Full
Feb 14
Last Quarter
Feb 21
New
Feb 29
First Quarter

Hourly Weather History & Observations

Time (CST) Temp. Windchill Dew Point Humidity Pressure Visibility Wind Dir Wind Speed Gust Speed Precip Events Conditions
12:15 AM 23.0 °F 13.9 °F 23.0 °F 100% 30.24 in 0.2 mi West 8.1 mph - N/A   Overcast
12:35 AM 23.0 °F 14.7 °F 23.0 °F 100% 30.24 in 0.2 mi West 6.9 mph - N/A   Overcast
12:55 AM 23.4 °F 15.2 °F 23.4 °F 100% 30.24 in 0.2 mi WSW 6.9 mph - N/A   Overcast
1:15 AM 23.4 °F 15.2 °F 23.4 °F 100% 30.24 in 0.2 mi WSW 6.9 mph - N/A   Overcast
1:35 AM 23.0 °F 15.8 °F 23.0 °F 100% 30.23 in 0.2 mi West 5.8 mph - N/A   Overcast
1:55 AM 22.6 °F 14.3 °F 22.6 °F 100% 30.23 in 0.2 mi West 6.9 mph - N/A   Overcast
2:15 AM 22.5 °F 15.1 °F 22.5 °F 100% 30.23 in 0.2 mi WSW 5.8 mph - N/A   Overcast
2:35 AM 22.5 °F 16.3 °F 22.5 °F 100% 30.22 in 0.2 mi West 4.6 mph - N/A   Overcast
2:55 AM 22.1 °F 14.7 °F 21.9 °F 99% 30.22 in 0.2 mi WSW 5.8 mph - N/A   Overcast
3:15 AM 21.2 °F 12.6 °F 21.2 °F 100% 30.22 in 0.2 mi WSW 6.9 mph - N/A   Overcast
3:35 AM 21.0 °F 12.4 °F 20.8 °F 99% 30.21 in 0.2 mi West 6.9 mph - N/A   Overcast
3:55 AM 20.8 °F 12.1 °F 20.3 °F 98% 30.21 in 0.2 mi West 6.9 mph - N/A   Overcast
4:15 AM 20.5 °F 10.8 °F 20.3 °F 99% 30.20 in 0.2 mi WSW 8.1 mph - N/A   Overcast
4:35 AM 20.1 °F 11.3 °F 19.8 °F 99% 30.20 in 0.2 mi WSW 6.9 mph - N/A   Overcast
4:55 AM 19.4 °F 12.8 °F 18.7 °F 97% 30.19 in 0.2 mi SW 4.6 mph - N/A   Overcast
5:15 AM 19.2 °F 11.3 °F 18.9 °F 98% 30.18 in 0.2 mi WSW 5.8 mph - N/A   Overcast
5:35 AM 18.3 °F 11.5 °F 17.6 °F 97% 30.18 in 0.2 mi SW 4.6 mph - N/A   Overcast
5:55 AM 17.4 °F 9.1 °F 16.7 °F 97% 30.18 in 0.5 mi WSW 5.8 mph - N/A   Overcast
6:15 AM 15.8 °F 8.6 °F 14.9 °F 96% 30.17 in 0.5 mi WSW 4.6 mph - N/A   Overcast
6:35 AM 17.1 °F 7.6 °F 16.5 °F 98% 30.16 in 0.2 mi WSW 6.9 mph - N/A   Overcast
6:55 AM 16.7 °F 9.6 °F 15.8 °F 96% 30.16 in 0.2 mi WSW 4.6 mph - N/A   Overcast
7:15 AM 16.7 °F 11.2 °F 15.8 °F 96% 30.16 in 0.2 mi SW 3.5 mph - N/A   Overcast
7:35 AM 16.7 °F 8.3 °F 16.2 °F 98% 30.16 in 0.2 mi WSW 5.8 mph - N/A   Overcast
7:55 AM 16.7 °F 7.2 °F 16.2 °F 98% 30.17 in 0.2 mi WSW 6.9 mph - N/A   Overcast
8:15 AM 16.9 °F 7.4 °F 16.0 °F 96% 30.17 in 0.5 mi WSW 6.9 mph - N/A   Overcast
8:35 AM 18.1 °F 8.9 °F 17.6 °F 98% 30.17 in 1.0 mi WSW 6.9 mph - N/A   Overcast
8:55 AM 18.5 °F 11.7 °F 18.1 °F 98% 30.17 in 0.2 mi WSW 4.6 mph - N/A   Overcast
9:15 AM 19.6 °F 14.5 °F 19.2 °F 99% 30.17 in 0.2 mi WSW 3.5 mph - N/A   Overcast
9:35 AM 20.3 °F 13.8 °F 20.1 °F 99% 30.17 in 0.2 mi SW 4.6 mph - N/A   Overcast
9:55 AM 21.9 °F 15.7 °F 21.6 °F 99% 30.17 in 0.2 mi WSW 4.6 mph - N/A   Overcast
10:15 AM 24.3 °F 19.9 °F 24.3 °F 100% 30.17 in 2.5 mi SW 3.5 mph - N/A   Mostly Cloudy
10:35 AM 24.3 °F 18.4 °F 24.3 °F 100% 30.16 in 0.5 mi WSW 4.6 mph - N/A   Overcast
10:55 AM 26.2 °F 20.7 °F 26.2 °F 100% 30.16 in 5.0 mi WSW 4.6 mph - N/A   Mostly Cloudy
11:15 AM 27.5 °F 21.1 °F 27.5 °F 100% 30.16 in 7.0 mi WSW 5.8 mph - N/A   Scattered Clouds
11:35 AM 27.5 °F 22.2 °F 27.5 °F 100% 30.15 in 1.2 mi WSW 4.6 mph - N/A   Mostly Cloudy
11:55 AM 28.2 °F 23.1 °F 28.2 °F 100% 30.14 in 2.0 mi WSW 4.6 mph - N/A   Mostly Cloudy
12:15 PM 28.9 °F 23.9 °F 28.9 °F 100% 30.13 in 1.8 mi West 4.6 mph - N/A   Overcast
12:35 PM 28.9 °F 23.9 °F 28.9 °F 100% 30.13 in 2.0 mi WSW 4.6 mph - N/A   Overcast
12:55 PM 29.8 °F 24.9 °F 29.8 °F 100% 30.12 in 2.0 mi WSW 4.6 mph - N/A   Overcast
1:15 PM 30.0 °F 24.1 °F 30.0 °F 100% 30.11 in 2.0 mi WSW 5.8 mph - N/A   Overcast
1:35 PM 30.0 °F 23.2 °F 30.0 °F 100% 30.10 in 2.0 mi WSW 6.9 mph - N/A   Overcast
1:55 PM 30.2 °F 23.4 °F 30.2 °F 100% 30.09 in 3.0 mi WSW 6.9 mph - N/A   Scattered Clouds
2:15 PM 31.6 °F 23.7 °F 31.6 °F 100% 30.09 in 4.0 mi WSW 9.2 mph - N/A   Clear
2:35 PM 32.0 °F 23.0 °F 32.0 °F 100% 30.08 in 5.0 mi WSW 11.5 mph - N/A   Clear
2:55 PM 34.0 °F 26.6 °F 34.0 °F 100% 30.08 in 5.0 mi WSW 9.2 mph - N/A   Clear
3:15 PM 35.6 °F 29.2 °F 34.7 °F 97% 30.08 in 7.0 mi WSW 8.1 mph - N/A   Clear
3:35 PM 37.2 °F 30.6 °F 32.7 °F 84% 30.08 in 7.0 mi WSW 9.2 mph - N/A   Clear
3:55 PM 37.6 °F 31.0 °F 32.0 °F 80% 30.09 in 7.0 mi West 9.2 mph - N/A   Clear
4:15 PM 37.8 °F 31.8 °F 32.2 °F 80% 30.09 in 10.0 mi West 8.1 mph - N/A   Clear
4:35 PM 37.8 °F 30.7 °F 32.4 °F 81% 30.09 in 10.0 mi WSW 10.4 mph - N/A   Clear
4:55 PM 36.5 °F 29.2 °F 32.0 °F 84% 30.09 in 10.0 mi WSW 10.4 mph - N/A   Clear
5:15 PM 34.2 °F 27.5 °F 30.6 °F 87% 30.10 in 10.0 mi West 8.1 mph - N/A   Clear
5:35 PM 32.2 °F 25.8 °F 29.1 °F 88% 30.10 in 10.0 mi West 6.9 mph - N/A   Clear
5:55 PM 30.6 °F 23.1 °F 28.2 °F 91% 30.11 in 10.0 mi West 8.1 mph - N/A   Clear
6:15 PM 29.3 °F 21.5 °F 27.7 °F 94% 30.11 in 10.0 mi West 8.1 mph - N/A   Clear
6:35 PM 28.9 °F 21.1 °F 27.5 °F 94% 30.11 in 7.0 mi West 8.1 mph - N/A   Clear
6:55 PM 27.5 °F 21.1 °F 26.2 °F 95% 30.11 in 7.0 mi WSW 5.8 mph - N/A   Clear
7:15 PM 27.1 °F 18.9 °F 26.4 °F 97% 30.11 in 7.0 mi WSW 8.1 mph - N/A   Clear
7:35 PM 26.6 °F 20.0 °F 25.3 °F 95% 30.12 in 7.0 mi West 5.8 mph - N/A   Clear
7:55 PM 26.6 °F 17.5 °F 25.3 °F 95% 30.13 in 7.0 mi West 9.2 mph - N/A   Clear
8:15 PM 26.2 °F 17.1 °F 25.2 °F 96% 30.13 in 7.0 mi West 9.2 mph - N/A   Clear
8:35 PM 25.7 °F 15.7 °F 24.6 °F 96% 30.14 in 7.0 mi West 10.4 mph - N/A   Clear
8:55 PM 25.7 °F 15.1 °F 24.8 °F 96% 30.14 in 7.0 mi WNW 11.5 mph - N/A   Clear
9:15 PM 28.4 °F 19.7 °F 26.6 °F 93% 30.16 in 7.0 mi NNW 9.2 mph - N/A   Clear
9:35 PM 29.5 °F 19.3 °F 27.5 °F 92% 30.16 in 10.0 mi North 12.7 mph - N/A   Clear
9:55 PM 30.2 °F 19.8 °F 27.1 °F 88% 30.16 in 10.0 mi North 13.8 mph 19.6 mph N/A   Clear
10:15 PM 29.8 °F 19.3 °F 27.0 °F 89% 30.17 in 10.0 mi North 13.8 mph - N/A   Clear
10:35 PM 28.9 °F 17.3 °F 26.6 °F 91% 30.17 in 10.0 mi North 16.1 mph 20.7 mph N/A   Clear
10:55 PM 28.8 °F 16.6 °F 26.6 °F 92% 30.18 in 10.0 mi NNE 17.3 mph - N/A   Clear
11:15 PM 28.4 °F 17.5 °F 26.4 °F 92% 30.20 in 10.0 mi North 13.8 mph 19.6 mph N/A   Clear
11:35 PM 27.9 °F 15.5 °F 25.7 °F 92% 30.20 in 10.0 mi North 17.3 mph - N/A   Clear
11:55 PM 27.5 °F 15.4 °F 25.7 °F 93% 30.20 in 10.0 mi North 16.1 mph - N/A   Clear